Location: Ames
(42.0350°N, 93.6200°W)
Time: 02:28:00
(UTC-06:00)

ISS - All Passes

Search period start: 01 March 2015 00:00
Search period end: 11 March 2015 01:00
Orbit: 397 x 408 km, 51.6° (Epoch: 01 March)

Date Brightness Start Highest point End Pass type
(mag) Time Alt. Az. Time Alt. Az. Time Alt. Az.
01 Mar - 09:52:55 10° SW 09:56:07 78° SE 09:59:22 10° ENE daylight
01 Mar - 11:30:14 10° WNW 11:32:51 22° NNW 11:35:28 10° NE daylight
01 Mar - 13:08:10 10° NW 13:10:09 15° N 13:12:07 10° NE daylight
01 Mar - 14:44:30 10° NW 14:47:21 28° NNE 14:50:13 10° E daylight
01 Mar - 16:20:46 10° WNW 16:23:54 47° SW 16:27:02 10° SE daylight
02 Mar - 09:00:11 10° SSW 09:03:12 39° SE 09:06:15 10° ENE daylight
02 Mar - 10:36:46 10° W 10:39:41 30° NNW 10:42:37 10° NE daylight
02 Mar - 12:14:51 10° NW 12:16:52 15° N 12:18:52 10° NE daylight
02 Mar - 13:51:38 10° NW 13:54:10 21° NNE 13:56:43 10° ENE daylight
02 Mar - 15:27:43 10° NW 15:30:58 88° NNE 15:34:12 10° SE daylight
02 Mar - 17:06:09 10° WSW 17:06:58 11° SW 17:07:40 10° SW daylight
03 Mar - 08:07:53 10° S 08:10:20 20° SE 08:12:49 10° E daylight
03 Mar - 09:43:25 10° WSW 09:46:34 48° NNW 09:49:43 10° NE daylight
03 Mar - 11:21:21 10° NW 11:23:35 17° N 11:25:47 10° NNE daylight
03 Mar - 12:58:42 10° NNW 13:00:54 17° N 13:03:08 10° NE daylight
03 Mar - 14:34:45 10° NW 14:37:55 48° NNE 14:41:04 10° ESE daylight
03 Mar - 16:11:39 10° W 16:14:09 20° SW 16:16:36 10° S daylight
04 Mar - 07:16:50 10° SE 07:17:29 11° SE 07:18:17 10° ESE daylight
04 Mar - 08:50:16 10° SW 08:53:30 88° NW 08:56:45 10° NE daylight
04 Mar - 10:27:46 10° WNW 10:30:18 20° NNW 10:32:49 10° NE daylight
04 Mar - 12:05:36 10° NW 12:07:36 15° N 12:09:36 10° NE daylight
04 Mar - 13:41:50 10° NW 13:44:45 30° NNE 13:47:42 10° E daylight
04 Mar - 15:18:11 10° WNW 15:21:15 39° SW 15:24:16 10° SSE daylight
05 Mar - 07:57:23 10° SW 08:00:29 47° SE 08:03:37 10° ENE daylight
05 Mar - 09:34:12 10° W 09:37:02 27° NNW 09:39:53 10° NE daylight
05 Mar - 11:12:16 10° NW 11:14:14 15° N 11:16:13 10° NE daylight
05 Mar - 12:48:55 10° NW 12:51:31 22° NNE 12:54:09 10° ENE daylight
05 Mar - 14:25:01 10° WNW 14:28:15 78° SW 14:31:29 10° SE daylight
06 Mar - 07:04:53 10° S 07:07:32 24° SE 07:10:14 10° E daylight
06 Mar - 08:40:44 10° W 08:43:49 42° NNW 08:46:55 10° NE daylight
06 Mar - 10:18:43 10° NW 10:20:53 16° N 10:23:01 10° NNE daylight
06 Mar - 11:55:55 10° NNW 11:58:12 18° NNE 12:00:30 10° ENE daylight
06 Mar - 13:31:57 10° NW 13:35:09 56° NNE 13:38:20 10° ESE daylight
06 Mar - 15:09:04 10° W 15:11:19 17° SW 15:13:30 10° S daylight
07 Mar - 06:13:09 10° SSE 06:14:37 13° SE 06:16:10 10° ESE visible
07 Mar - 07:47:26 10° WSW 07:50:40 75° NNW 07:53:54 10° NE daylight
07 Mar - 09:25:04 10° WNW 09:27:31 19° NNW 09:29:57 10° NE daylight
07 Mar - 11:02:47 10° NNW 11:04:49 15° N 11:06:52 10° NE daylight
07 Mar - 12:38:57 10° NW 12:41:57 34° NNE 12:44:57 10° E daylight
07 Mar - 14:15:24 10° WNW 14:18:21 32° SW 14:21:17 10° SSE daylight
08 Mar - 07:54:24 10° SW 07:57:34 56° SE 08:00:45 10° ENE daylight
08 Mar - 09:31:24 10° W 09:34:10 25° NNW 09:36:56 10° NE daylight
08 Mar - 11:09:26 10° NW 11:11:24 15° N 11:13:21 10° NE daylight
08 Mar - 12:45:57 10° NW 12:48:39 24° NNE 12:51:21 10° ENE daylight
08 Mar - 14:22:05 10° WNW 14:25:18 65° SW 14:28:30 10° SE daylight
09 Mar - 07:01:41 10° SSW 07:04:30 28° SE 07:07:22 10° ENE visible
09 Mar - 08:37:49 10° W 08:40:52 37° NNW 08:43:55 10° NE daylight
09 Mar - 10:15:52 10° NW 10:17:57 16° N 10:20:02 10° NNE daylight
09 Mar - 11:52:55 10° NNW 11:55:16 18° NNE 11:57:39 10° ENE daylight
09 Mar - 13:28:56 10° NW 13:32:09 66° NNE 13:35:22 10° ESE daylight
09 Mar - 15:06:20 10° W 15:08:15 15° SW 15:10:05 10° SSW daylight
10 Mar - 06:09:36 10° SSE 06:11:30 15° SE 06:13:29 10° E visible
10 Mar - 07:44:24 10° WSW 07:47:36 64° NNW 07:50:50 10° NE daylight
10 Mar - 09:22:08 10° WNW 09:24:30 18° NNW 09:26:51 10° NNE daylight
10 Mar - 10:59:44 10° NNW 11:01:49 16° N 11:03:55 10° NE daylight
10 Mar - 12:35:50 10° NW 12:38:54 38° NNE 12:41:57 10° E daylight
10 Mar - 14:12:25 10° WNW 14:15:14 27° SW 14:18:02 10° SSE daylight
